DW0809 Weather Reports


Display with metric or nautical units.
time (UTC)temp
F
wind
direction
speed
MPH
gust
MPH
rain 1hr
in
rain 24hr
in
rain mn
in
humidity
%
barometer
mb
20260502221517 68 0.0 0.0 0.00 0.00 0.00 29 1018.4
20260502220517 68 0.0 0.0 0.00 0.00 0.00 29 1018.5
20260502215516 67 0.0 0.0 0.00 0.00 0.00 29 1018.6
20260502214516 68 0.0 0.0 0.00 0.00 0.00 29 1018.7
20260502213517 67 0.0 0.0 0.00 0.00 0.00 31 1019.0
20260502212516 67 0.0 0.0 0.00 0.00 0.00 31 1019.0
20260502211536 66 0.0 0.0 0.00 0.00 0.00 31 1019.0
20260502210517 66 0.0 0.0 0.00 0.00 0.00 32 1019.2
20260502205517 67 0.0 0.0 0.00 0.00 0.00 30 1019.4
20260502204536 66 0.0 0.0 0.00 0.00 0.00 33 1019.8
20260502203516 67 0.0 0.0 0.00 0.00 0.00 30 1019.9
20260502202516 68 0.0 0.0 0.00 0.00 0.00 32 1020.1
20260502201516 67 0.0 0.0 0.00 0.00 0.00 31 1020.2
20260502200516 66 0.0 0.0 0.00 0.00 0.00 36 1020.4
20260502195516 65 0.0 0.0 0.00 0.00 0.00 35 1020.5
20260502194516 65 0.0 0.0 0.00 0.00 0.00 33 1020.8
20260502193516 64 0.0 0.0 0.00 0.00 0.00 36 1021.0
20260502192516 64 0.0 0.0 0.00 0.00 0.00 35 1021.1
20260502191516 65 0.0 0.0 0.00 0.00 0.00 35 1021.2
20260502190516 64 0.0 0.0 0.00 0.00 0.00 36 1021.4
20260502185516 64 0.0 0.0 0.00 0.00 0.00 37 1021.7
20260502184516 63 0.0 0.0 0.00 0.00 0.00 35 1021.8
20260502183516 63 0.0 0.0 0.00 0.00 0.00 36 1022.0
20260502182536 63 0.0 0.0 0.00 0.00 0.00 37 1022.1
20260502181516 62 0.0 0.0 0.00 0.00 0.00 37 1022.1
20260502180516 62 0.0 0.0 0.00 0.00 0.00 39 1022.3
20260502170516 60 0.0 0.0 0.00 0.00 0.00 37 1023.0
20260502163516 59 0.0 0.0 0.00 0.00 0.00 36 1023.2
20260502162516 59 0.0 0.0 0.00 0.00 0.00 37 1023.3
20260502161516 58 0.0 0.0 0.00 0.00 0.00 38 1023.3
20260502160516 57 0.0 0.0 0.00 0.00 0.00 40 1023.5
20260502151516 54 0.0 0.0 0.00 0.00 0.00 47 1023.4
20260502150516 54 0.0 0.0 0.00 0.00 0.00 48 1023.5
20260502130515 40 0.0 0.0 0.00 0.00 0.00 75 1023.3
20260502123556 38 0.0 0.0 0.00 0.00 0.00 79 1023.3
20260502122515 37 0.0 0.0 0.00 0.00 0.00 80 1023.3
20260502121516 37 0.0 0.0 0.00 0.00 0.00 78 1023.1
20260502120516 36 0.0 0.0 0.00 0.00 0.00 79 1023.0
20260502115515 36 0.0 0.0 0.00 0.00 0.00 78 1023.1
20260502114515 37 0.0 0.0 0.00 0.00 0.00 77 1023.0
20260502113516 37 0.0 0.0 0.00 0.00 0.00 76 1023.0
20260502112515 37 0.0 0.0 0.00 0.00 0.00 76 1022.9
20260502111515 37 0.0 0.0 0.00 0.00 0.00 76 1022.9
20260502110515 37 0.0 0.0 0.00 0.00 0.00 76 1022.8
20260502105536 38 0.0 0.0 0.00 0.00 0.00 76 1022.9
20260502104515 38 0.0 0.0 0.00 0.00 0.00 76 1022.9
20260502103515 38 0.0 0.0 0.00 0.00 0.00 77 1022.9
20260502102535 38 0.0 0.0 0.00 0.00 0.00 77 1022.7
20260502101515 38 0.0 0.0 0.00 0.00 0.00 76 1022.7
20260502100517 38 0.0 0.0 0.00 0.00 0.00 77 1022.6
20260502090517 39 0.0 0.0 0.00 0.00 0.00 72 1022.4
20260502071517 42 0.0 0.0 0.00 0.00 0.00 59 1022.5
20260502070517 42 0.0 0.0 0.00 0.00 0.00 59 1022.5
20260502065517 42 0.0 0.0 0.00 0.00 0.00 59 1022.6
20260502064517 42 0.0 0.0 0.00 0.00 0.00 59 1022.6
20260502063537 42 0.0 0.0 0.00 0.00 0.00 58 1022.7
20260502062517 43 0.0 0.0 0.00 0.00 0.00 56 1022.5
20260502061517 43 0.0 0.0 0.00 0.00 0.00 55 1022.6
20260502060517 43 0.0 0.0 0.00 0.00 0.00 54 1022.5
20260502055517 43 0.0 0.0 0.00 0.00 0.00 55 1022.5
20260502054517 43 0.0 0.0 0.00 0.00 0.00 55 1022.4
20260502053517 43 0.0 0.0 0.00 0.00 0.00 55 1022.3
20260502052517 44 0.0 0.0 0.00 0.00 0.00 54 1022.2
20260502051517 44 0.0 0.0 0.00 0.00 0.00 53 1022.2
20260502050517 45 0.0 0.0 0.00 0.00 0.00 53 1022.1
20260502045517 45 0.0 0.0 0.00 0.00 0.00 52 1022.0
20260502044517 46 0.0 0.0 0.00 0.00 0.00 51 1022.0
20260502043517 46 0.0 0.0 0.00 0.00 0.00 50 1022.0
20260502042517 46 0.0 0.0 0.00 0.00 0.00 50 1022.0
20260502041537 46 0.0 0.0 0.00 0.00 0.00 50 1022.0
20260502040517 47 0.0 0.0 0.00 0.00 0.00 49 1022.0
20260502035517 47 0.0 0.0 0.00 0.00 0.00 49 1021.7
20260502034517 47 0.0 0.0 0.00 0.00 0.00 49 1021.7
20260502033517 48 0.0 0.0 0.00 0.00 0.00 48 1021.8
20260502032517 48 0.0 0.0 0.00 0.00 0.00 48 1021.7
20260502031517 48 0.0 0.0 0.00 0.00 0.00 47 1021.7
20260502030517 49 0.0 0.0 0.00 0.00 0.00 46 1021.7
20260502025517 49 0.0 0.0 0.00 0.00 0.00 45 1021.5
20260502024517 50 0.0 0.0 0.00 0.00 0.00 44 1021.4
20260502023517 50 0.0 0.0 0.00 0.00 0.00 44 1021.4
20260502022517 51 0.0 0.0 0.00 0.00 0.00 43 1021.2
20260502021517 51 0.0 0.0 0.00 0.00 0.00 42 1021.1
20260502020517 51 0.0 0.0 0.00 0.00 0.00 41 1020.9
20260502015557 52 0.0 0.0 0.00 0.00 0.00 41 1020.7
20260502014517 52 0.0 0.0 0.00 0.00 0.00 40 1020.6
20260502013517 53 0.0 0.0 0.00 0.00 0.00 39 1020.6
20260502012517 53 0.0 0.0 0.00 0.00 0.00 39 1020.4
20260502011537 54 0.0 0.0 0.00 0.00 0.00 38 1020.3
20260502010517 54 0.0 0.0 0.00 0.00 0.00 37 1020.3
20260502005517 55 0.0 0.0 0.00 0.00 0.00 36 1020.0
20260502004517 55 0.0 0.0 0.00 0.00 0.00 36 1019.9
20260502003517 56 0.0 0.0 0.00 0.00 0.00 35 1019.8
20260502002517 56 0.0 0.0 0.00 0.00 0.00 34 1019.7
20260502001517 56 0.0 0.0 0.00 0.00 0.00 34 1019.7
20260502000517 57 0.0 0.0 0.00 0.00 0.00 34 1019.8
20260501235537 58 0.0 0.0 0.00 0.00 0.00 33 1019.8
20260501234537 58 0.0 0.0 0.00 0.00 0.00 32 1019.7
20260501233517 59 0.0 0.0 0.00 0.00 0.00 32 1019.8
20260501232517 59 0.0 0.0 0.00 0.00 0.00 32 1019.7
20260501231517 59 0.0 0.0 0.00 0.00 0.00 33 1019.7
20260501230517 60 0.0 0.0 0.00 0.00 0.00 31 1019.7
20260501225517 59 0.0 0.0 0.00 0.00 0.00 32 1019.6
20260501224517 60 0.0 0.0 0.00 0.00 0.00 32 1019.7
20260501223517 60 0.0 0.0 0.00 0.00 0.00 32 1019.7
20260501222516 60 0.0 0.0 0.00 0.00 0.00 32 1019.6